www.pogodaiklimat.ru

Погода и климат >> Архив погоды >> Мьянма >> Мьичина


ПОГОДА в Мьичине

  • Прогноз погоды в Мьичине
  • Монитор погоды в Мьичине

АРХИВ ПОГОДЫ в Мьичине

Время (UTC), дата Ветер
(напр.,м/с)
 
Видим.   Явления Облачность Т
(С)
Тd
(С)
f
(%)
Тe
(С)
Тes
(С)
Комфортность P
(гПа)
Po
(гПа)
Тmin
(С)
Tmax
(С)
R
(мм)
R24
(мм)
S
(см)
00 19.08 штиль 0 6000 м 9/5 300 м
[Cu Sc Ac As]
+26.5 +25.6 95 +39 +39 очень
душно
1005.4 988.7 +25.5 6
03 19.08 Ю 1 7000 м 10/5 300 м
[Cu Sc Ac As]
+28.9 +25.9 84 +43 +46 опасность
перегрева
1006.0 989.4
06 19.08 ЮЗ 1 8000 м 8/4 300 м
[Cu Sc Ac As]
+30.5 +26.7 80 +47 +55 опасность
перегрева
1005.2 988.7
09 19.08 ЮЗ 1 7000 м {морось} 10/5 300 м
[Cu Sc Ac As]
+30.1 +26.6 82 +47 +48 опасность
перегрева
1003.4 986.9
12 19.08 СЗ 1 6000 м морось {гроза} 10/5 300 м
[Cb cap Ac As]
+27.0 +24.0 84 +37 +37 очень
душно
1002.9 986.3 +32.5 0.0
00 20.08 штиль 0 6000 м 10/5 300 м
[Cu Sc Ac As]
+26.8 +26.5 98 +41 +41 опасность
перегрева
1004.3 987.6 +26.0 3
03 20.08 ЮЗ 1 8000 м 9/5 300 м
[Cu Sc Ac As]
+28.3 +26.8 92 +44 +48 опасность
перегрева
1005.1 988.5
06 20.08 ЮЗ 1 8000 м 8/4 300 м
[Cu Sc Ac As]
+30.5 +25.4 74 +44 +52 опасность
перегрева
1003.8 987.3
09 20.08 ЮВ 1 8000 м 8/4 300 м
[Cu Sc Ac As]
+31.7 +26.5 74 +48 +52 опасность
перегрева
1001.5 985.1
12 20.08 штиль 0 6000 м 9/5 300 м
[Cu Sc Ac As]
+30.9 +26.7 78 +48 +48 опасность
перегрева
1000.2 983.8 +32.4
00 21.08 штиль 0 6000 м 10/5 300 м
[Cu Sc Ac As]
+27.3 +26.6 96 +42 +42 опасность
перегрева
1002.9 986.3 +26.6
03 21.08 СЗ 1 8000 м 9/5 300 м
[Cu Sc Ac As]
+29.7 +26.6 83 +46 +49 опасность
перегрева
1003.7 987.2
06 21.08 ЮЗ 1 8000 м 8/4 300 м
[Cu Sc Ac As]
+32.9 +27.5 73 +52 +60 опасность
перегрева
1002.7 986.4
12 21.08 штиль 0 6000 м 9/5 300 м
[Cu Sc Ac As]
+33.3 +29.7 81 +59 +59 опасность
перегрева
999.2 983.0 +35.7
00 22.08 штиль 0 5000 м {дождь} 10/5 300 м
[Cu Sc Ac As]
+26.7 +25.6 94 +39 +40 очень
душно
1003.3 986.6 +26.0 6
03 22.08 штиль 0 8000 м 8/4 300 м
[Cu Sc Ac As]
+29.6 +25.3 78 +43 +49 опасность
перегрева
1004.9 988.4
06 22.08 ЮЗ 1 8000 м 9/5 300 м
[Cu Sc Ac As]
+31.2 +26.7 77 +48 +53 опасность
перегрева
1003.6 987.2
09 22.08 СЗ 1 8000 м 9/5 300 м
[Cu Sc Ac As]
+32.7 +26.7 71 +50 +52 опасность
перегрева
1000.3 984.0
12 22.08 штиль 0 6000 м 10/5 300 м
[Cu Sc Ac As]
+31.5 +28.1 82 +52 +52 опасность
перегрева
1000.0 983.6 +33.4
06 23.08 штиль 0 7000 м слаб. морось 10/5 300 м
[Cu Sc Ac As]
+27.5 +25.0 86 +39 +44 очень
душно
1007.1 990.4
09 23.08 ЮЗ 1 7000 м {морось} 10/5 300 м
[Cu Sc Ac As]
+29.2 +24.8 77 +42 +43 опасность
перегрева
1005.3 988.7
12 23.08 штиль 0 6000 м 8/4 300 м
[Cu Sc Ac As]
+28.5 +24.8 80 +41 +41 опасность
перегрева
1004.9 988.3 +30.0 0.0
00 24.08 штиль 0 6000 м 10/4 300 м
[Cu Sc Ac As]
+25.1 +24.9 99 +36 +36 очень
душно
1007.3 990.5 +24.7
03 24.08 штиль 0 7000 м 9/5 300 м
[Cu Sc Ac As]
+27.7 +25.0 85 +40 +44 очень
душно
1007.4 990.7
06 24.08 штиль 0 8000 м 8/4 300 м
[Cu Sc Ac As]
+31.2 +26.7 77 +48 +57 опасность
перегрева
1006.1 989.6
09 24.08 ЮЗ 1 9000 м 5/5 600 м
[Cu Sc Ac As]
+34.0 +25.7 62 +49 +54 опасность
перегрева
1003.3 987.0
12 24.08 штиль 0 6000 м 6/4 600 м
[Cu Sc Ac As]
+31.9 +26.5 73 +48 +48 опасность
перегрева
1001.7 985.3 +34.5
00 25.08 штиль 0 6000 м 8/4 300 м
[Cu Sc Ac As]
+27.3 +26.9 98 +43 +43 опасность
перегрева
1005.4 988.7 +26.5
03 25.08 Ю 1 7000 м 8/5 300 м
[Cu Sc Ac As]
+29.2 +27.4 90 +47 +51 опасность
перегрева
1006.7 990.1
06 25.08 штиль 0 8000 м 6/4 300 м
[Cu Sc Ac As]
+33.5 +27.5 71 +53 +65 опасность
перегрева
1003.4 987.1
09 25.08 ЮВ 1 8000 м 5/3 600 м
[Cu Sc Ac As]
+35.3 +28.0 66 +56 +61 опасность
перегрева
1001.3 985.1
12 25.08 штиль 0 6000 м 6/4 600 м
[Cu Sc Ac As]
+34.7 +28.0 68 +55 +55 опасность
перегрева
999.8 983.6 +35.8

 

Местоположение метеостанции Мьичина (Мьянма): широта 25.37 долгота 97.40 высота над уровнем моря 147 м.

В архиве по умолчанию представлена погода в Мьичине за последнюю неделю. Архивные данные за месяц целиком и за предыдущие месяцы, начиная с января 2011 года, Вы можете получить, выбрав интересующий диапазон дат из раскрывающегося списка и нажав кнопку "Ввод!".


*Определитесь, кто Вы:
робот инопланетянин человек

Внимание! Время в таблицах - всемирное. Для получения местного времени необходимо прибавить поправку, которая равна 6.5 ч.

Смотрите также архив погоды в соседних городах и на ближайших метеорологических станциях:

Погода в Тенгчонге (Юньнань, Китай) (112 км)
Погода в Банмо (Мьянма) (124 км)
Погода в Жуйли (Юньнань, Китай) (156 км)
Погода в Катхе (Мьянма) (172 км)
Погода в Баошане (Хэйлунцзян, Китай) (181 км)
Погода в Хкамти (Мьянма) (184 км)
Погода в Путао (Мьянма) (218 км)
Погода в Хомалине (Мьянма) (256 км)
Погода в Лашо (Мьянма) (274 км)
Погода в Дали (Юньнань, Китай) (281 км)

Пояснения к столбцам:

Ветер - указаны скорость ветра в м/с - средняя за 10 мин, порывы в срок и между сроками (в фигурных скобках) и направление, откуда дует ветер: С - северный, СВ - северо-восточный, В - восточный, ЮВ - юго-восточный, Ю - южный, ЮЗ - юго-западный, З - западный, СЗ - северо-западный.
Видимость - горизонтальная дальность видимости в метрах или километрах. При видимости от 1 до 10 км при отсутствии осадков обычно наблюдается дымка, при ухудшении видимости до 1 км и менее - туман. В сухую погоду видимость может ухудшаться дымом, пылью или мглою.
Явления - указаны атмосферные явления, наблюдавшиеся в срок или в последний час перед сроком; фигурными скобками обозначены явления, наблюдавшиеся между сроками (за 1-3 часа до срока); квадратными скобками обозначены град или гололедные отложения с указанием их диаметра в мм.
Облачность - указаны через наклонную черту общая и нижняя облачность в баллах и высота нижней границы облаков в метрах; квадратными скобками обозначены формы облаков: Ci - перистые, Cs - перисто-слоистые, Cc - перисто-кучевые, Ac - высококучевые, As - высокослоистые, Sc - слоисто-кучевые, Ns - слоисто-дождевые, Cu - кучевые, Cb - кучево-дождевые. Подробнее классификацию облаков см. в Атласе облаков (PDF).
T - Температура воздуха - температура, измеренная на высоте 2 м над землей.
Td - Температура точки росы - температура, при понижении до которой содержащийся в воздухе водяной пар достигнет насыщения.
f - Относительная влажность воздуха - влажноcть воздуха, измеренная на высоте 2 м над землей.
Te - Эффективная температура - температура, которую ощущает одетый по сезону человек в тени. Характеристика душности погоды. При расчете учитывается влияние влажности воздуха и скорости ветра на теплоощущения человека.
Tes - Эффективная температура на солнце - температура, которую ощущает человек, с поправкой на солнечный нагрев. Характеристика знойности погоды. Зависит от высоты солнца над горизонтом, облачности и скорости ветра. Ночью, в пасмурную погоду, а также при ветре 12 м/с и более поправка равна нулю.
P - Атмосферное давление - приведенное к уровню моря атмосферное давление.
Po - Атмосферное давление - измеренное на уровне метеостанции атмосферное давление.
Tmin - Минимальная температура - минимум температуры воздуха на высоте 2 м над землей.
Tmax - Максимальная температура - максимум температуры воздуха на высоте 2 м над землей.
R - Количество осадков - Количество выпавших осадков за период времени, мм. При наведении курсора мыши на число - период времени, за который выпало указанное количество осадков.
R24 - Количество осадков - Количество выпавших осадков за 24 часа, мм.
S - Снежный покров - Высота снежного покрова, см. При наведении курсора мыши на число - состояние снежного покрова и степень покрытия местности в баллах.